Location: Владивосток
(43.1151°N, 131.8856°E)
Time: 10:29:26
(UTC+10:00)

NOAA 19 - Visible Passes

Search period start: 24 April 2024 00:00
Search period end: 04 May 2024 00:00
Orbit: 838 x 860 km, 99.1° (Epoch: 23 April)

Date Brightness Start Highest point End Pass type
(mag) Time Alt. Az. Time Alt. Az. Time Alt. Az.
24 Apr 5.2 21:47:11 20° SSE 21:51:05 87° WSW 21:56:34 10° NNW visible
24 Apr 7.7 23:30:50 10° WSW 23:32:28 11° W 23:34:06 10° WNW visible
25 Apr 5.1 21:34:40 18° SSE 21:38:49 74° ENE 21:44:16 10° N visible
25 Apr 7.6 23:16:58 10° SW 23:20:01 15° W 23:23:04 10° NW visible
26 Apr 5.3 21:22:10 15° SE 21:26:34 58° ENE 21:31:56 10° N visible
26 Apr 7.3 23:04:08 11° SW 23:07:35 19° W 23:11:27 10° NW visible
27 Apr 5.6 21:09:40 12° SE 21:14:21 46° ENE 21:19:33 10° N visible
27 Apr 7.0 22:51:38 14° SW 22:55:10 25° W 22:59:37 10° NW visible
28 Apr 5.9 20:57:13 10° SE 21:02:09 36° ENE 21:07:06 10° N visible
28 Apr 6.6 22:39:08 16° SSW 22:42:48 32° W 22:47:38 10° NW visible
29 Apr 6.2 20:45:21 10° ESE 20:49:58 29° ENE 20:54:37 10° N visible
29 Apr 6.2 22:26:37 17° SSW 22:30:26 40° W 22:35:34 10° NNW visible
30 Apr 5.8 22:14:07 18° S 22:18:06 52° W 22:23:25 10° NNW visible
01 May 5.4 22:01:36 17° S 22:05:47 67° WSW 22:11:13 10° NNW visible
02 May 5.2 21:49:06 16° SSE 21:53:29 85° WSW 21:58:58 10° NNW visible
02 May 7.8 23:33:36 10° WSW 23:34:53 11° W 23:36:10 10° WNW visible
03 May 5.2 21:36:35 15° SSE 21:41:13 77° ENE 21:46:40 10° NNW visible
03 May 7.6 23:19:32 10° WSW 23:22:25 14° W 23:25:20 10° WNW visible
